SCOUT A DEB, 4555

Orbit data source: Space-Track

SCOUT A DEB, 4555 is space debris in LEO originally from a launch on Thu, 19 May 1966 UTC launched from the Air Force Western Test Range (AFWTR). Debris objects in space refer to the collection of defunct objects orbiting the Earth. Examples of debris include non-operational satellites, rocket bodies, and fragments generated from explosions, collisions, or faulty payload assembly.

Loading next visibility...
Identifier
4555, 1966-041F
Orbit
LEO
Last TLE update
20 hours ago
Origin
Manufacturer
Unknown
Mission
Spacecraft
Bus & Motor
Unknown
Mass
Unknown
Launch date (UTC)
1966-05-19 (59 years ago)
Launch vehicle
Unknown
Launch site
Air Force Western Test Range (AFWTR)
Object type
Payload
Rocket body
Debris
Shape & HBR
Unknown
Radar Cross Section
Small (<0.1 m²)

Expand to show TLE details & history

TLE from 20 hours ago
0 SCOUT A DEB
1 04555U 66041F   25181.91804190  .00001494  00000-0  37758-3 0  9996
2 04555  90.2053  66.0042 0039619 230.0803 129.6920 14.50210664372978
Epoch: 2025-06-30T22:01Z
TLE epoch observation values (Epoch: 2025-06-30T22:01:58.82Z)
Latitude
-0.00001°
Longitude
176.28816°
Altitude
746.101 km
Speed
7.472 km/s
True Right ascension
04h 24m 01s
True Declination
0° 00' 00"
Sunlit
Object was in daylight at epoch
Visualization orbit readout
Latitude
-39.2777°
Longitude
176.47523°
Altitude
741.782 km
Speed
7.482 km/s
Apparent Right ascension
00h 33m 35s
Apparent Declination
-80° 19' 37"
Sunlit
Object is in daylight
Visualization observer readout
Local Sidereal Time
05:23:07
Azimuth
191.478° SSW
Elevation
-36.408°
Doppler factor
1
Orbital elements
Apogee altitude
749.995 km
Perigee altitude
693.736 km
Semi-major axis
7,100.003 km
Eccentricity
0.00396
Inclination
90.2053°
RAAN
66.0042°
Arg. of periapsis
230.0803°
True anomaly
Unknown
Mean anomaly
129.692°
Eccentric anomaly
Unknown
Mean motion
3.6279 °/min
Orbital period
99.23 mins
BSTAR
0.00037758
Loading maneuver chart data...
Loading SW <> Apogee altitude chart data...
Loading historical data...
Loading historical data...
Loading historical data...
Loading historical data...
Loading historical data...
Loading historical data...
Loading historical data...

SCOUT A DEB Visibility forecast

Observer location: undefined°, undefined°

Span
Click to sort rows by Start time (UTC) header in descending order
Start Az.
Max El. time (UTC)
Max El. Az.
Max El.
End time (UTC)
End Az.
4 mins2025-07-01 18:03:28.895Z253.14° W2025-07-01 18:05:28.895Z278.019° WNW13.918°2025-07-01 18:07:28.895Z303.556° NW
8 mins2025-07-02 04:25:28.895Z11.058° NNE2025-07-02 04:29:28.895Z100.817° ESE42.098°2025-07-02 04:33:28.895Z171.666° S
5 mins2025-07-02 15:35:28.895Z108.733° ESE2025-07-02 15:37:28.895Z77.83° E20.564°2025-07-02 15:40:28.895Z34.864° NE
7 mins2025-07-02 17:13:28.895Z215.285° SW2025-07-02 17:16:28.895Z274.417° WNW32.147°2025-07-02 17:20:28.895Z338.131° N
|